Back to catalog

VSP RF C1

AliveScienceSSO
NORAD 59136·PAYLOAD·🇧🇪 Belgium

Launched Mar 4, 2024 from Vandenberg Space Force Base

Loading…

Next Passes (next 24 hours)

TLE

FreshSource: Space-Track

Epoch: Sep 14, 2026, 14:24 UTC

1 59136U 24043AQ  26257.60025517  .00003418  00000-0  12902-3 0  9998
2 59136  97.5743  36.9690 0001132  89.6334 270.5035 15.27730721140747

Track VSP RF C1 in real time with AllMySat

Download on the App Store